Time,TemperatureF,DewpointF,PressureIn,WindDirection,WindDirectionDegrees,WindSpeedMPH,WindSpeedGustMPH,Humidity,HourlyPrecipIn,Conditions,Clouds,dailyrainin,SoftwareType,DateUTC
2013-01-14 00:04:00,64.0,61.0,-100.00,SSW,200,8.0,13.0,90,-99.99,,,-99.99,,2013-01-14 05:04:00,
2013-01-14 00:12:00,64.0,61.0,-100.00,South,170,5.0,11.0,90,-99.99,,,-99.99,,2013-01-14 05:12:00,
2013-01-14 00:22:00,63.0,61.0,-100.00,SSE,165,4.0,14.0,90,-99.99,,,-99.99,,2013-01-14 05:22:00,
2013-01-14 00:33:00,63.0,60.0,-100.00,South,185,4.0,11.0,90,-99.99,,,-99.99,,2013-01-14 05:33:00,
2013-01-14 00:43:00,63.0,60.0,-100.00,South,180,6.0,11.0,90,-99.99,,,-99.99,,2013-01-14 05:43:00,
2013-01-14 00:52:00,63.0,60.0,-100.00,South,185,7.0,10.0,90,-99.99,,,-99.99,,2013-01-14 05:52:00,
2013-01-14 01:03:00,63.0,60.0,-100.00,SSW,195,6.0,15.0,90,-99.99,,,-99.99,,2013-01-14 06:03:00,
2013-01-14 01:12:00,63.0,60.0,-100.00,SSW,195,7.0,13.0,90,-99.99,,,-99.99,,2013-01-14 06:12:00,
2013-01-14 01:23:00,63.0,60.0,-100.00,SSW,205,7.0,13.0,90,-99.99,,,-99.99,,2013-01-14 06:23:00,
2013-01-14 01:33:00,63.0,60.0,-100.00,South,185,9.0,14.0,90,-99.99,,,-99.99,,2013-01-14 06:33:00,
2013-01-14 01:43:00,63.0,60.0,-100.00,SSW,195,11.0,14.0,90,-99.99,,,-99.99,,2013-01-14 06:43:00,
2013-01-14 01:52:00,63.0,60.0,-100.00,South,190,7.0,15.0,90,-99.99,,,-99.99,,2013-01-14 06:52:00,
2013-01-14 02:02:00,63.0,60.0,-100.00,SSW,195,8.0,13.0,90,-99.99,,,-99.99,,2013-01-14 07:02:00,
2013-01-14 02:12:00,63.0,60.0,-100.00,South,190,10.0,16.0,90,-99.99,,,-99.99,,2013-01-14 07:12:00,
2013-01-14 02:23:00,63.0,60.0,-100.00,South,190,10.0,16.0,90,-99.99,,,-99.99,,2013-01-14 07:23:00,
2013-01-14 02:33:00,63.0,60.0,-100.00,South,190,8.0,19.0,90,-99.99,,,-99.99,,2013-01-14 07:33:00,
2013-01-14 02:43:00,63.0,60.0,-100.00,SSW,205,9.0,14.0,90,-99.99,,,-99.99,,2013-01-14 07:43:00,
2013-01-14 02:53:00,63.0,60.0,-100.00,SSW,200,7.0,14.0,90,-99.99,,,-99.99,,2013-01-14 07:53:00,
2013-01-14 03:02:00,63.0,61.0,-100.00,SSW,200,9.0,15.0,91,-99.99,,,-99.99,,2013-01-14 08:02:00,
2013-01-14 03:12:00,63.0,60.0,-100.00,South,190,8.0,15.0,91,-99.99,,,-99.99,,2013-01-14 08:12:00,
2013-01-14 03:22:00,63.0,61.0,-100.00,South,180,9.0,15.0,92,-99.99,,,-99.99,,2013-01-14 08:22:00,
2013-01-14 03:33:00,63.0,61.0,-100.00,South,185,7.0,14.0,93,-99.99,,,-99.99,,2013-01-14 08:33:00,
2013-01-14 03:42:00,63.0,61.0,-100.00,SSW,205,6.0,12.0,93,-99.99,,,-99.99,,2013-01-14 08:42:00,
2013-01-14 03:53:00,63.0,61.0,-100.00,SSW,205,7.0,11.0,93,-99.99,,,-99.99,,2013-01-14 08:53:00,
2013-01-14 04:03:00,63.0,61.0,-100.00,South,190,6.0,11.0,93,-99.99,,,-99.99,,2013-01-14 09:03:00,
2013-01-14 04:12:00,63.0,61.0,-100.00,SSE,160,7.0,10.0,93,-99.99,,,-99.99,,2013-01-14 09:12:00,
2013-01-14 04:23:00,63.0,61.0,-100.00,South,175,6.0,13.0,93,-99.99,,,-99.99,,2013-01-14 09:23:00,
2013-01-14 04:33:00,62.0,60.0,-100.00,South,185,6.0,12.0,93,-99.99,,,-99.99,,2013-01-14 09:33:00,
2013-01-14 04:43:00,62.0,60.0,-100.00,SSW,195,5.0,9.0,93,-99.99,,,-99.99,,2013-01-14 09:43:00,
2013-01-14 04:52:00,62.0,60.0,-100.00,SSE,160,5.0,11.0,94,-99.99,,,-99.99,,2013-01-14 09:52:00,
2013-01-14 05:02:00,62.0,60.0,-100.00,SSE,160,5.0,10.0,94,-99.99,,,-99.99,,2013-01-14 10:02:00,
2013-01-14 05:12:00,62.0,61.0,-100.00,South,175,5.0,11.0,95,-99.99,,,-99.99,,2013-01-14 10:12:00,
2013-01-14 05:23:00,62.0,61.0,-100.00,South,170,7.0,10.0,95,-99.99,,,-99.99,,2013-01-14 10:23:00,
2013-01-14 05:33:00,62.0,61.0,-100.00,South,185,4.0,11.0,95,-99.99,,,-99.99,,2013-01-14 10:33:00,
2013-01-14 05:42:00,62.0,61.0,-100.00,SSE,160,6.0,13.0,95,-99.99,,,-99.99,,2013-01-14 10:42:00,
2013-01-14 05:52:00,62.0,61.0,-100.00,SSE,165,6.0,10.0,95,-99.99,,,-99.99,,2013-01-14 10:52:00,
2013-01-14 06:02:00,62.0,61.0,-100.00,South,170,5.0,10.0,95,-99.99,,,-99.99,,2013-01-14 11:02:00,
2013-01-14 06:12:00,62.0,61.0,-100.00,SSE,160,6.0,9.0,95,-99.99,,,-99.99,,2013-01-14 11:12:00,
2013-01-14 06:22:00,62.0,61.0,-100.00,South,175,6.0,12.0,95,-99.99,,,-99.99,,2013-01-14 11:22:00,
2013-01-14 06:33:00,62.0,60.0,-100.00,SSE,150,5.0,9.0,95,-99.99,,,-99.99,,2013-01-14 11:33:00,
2013-01-14 06:43:00,62.0,60.0,-100.00,SSE,165,6.0,9.0,95,-99.99,,,-99.99,,2013-01-14 11:43:00,
2013-01-14 06:53:00,62.0,60.0,-100.00,South,180,6.0,10.0,95,-99.99,,,-99.99,,2013-01-14 11:53:00,
2013-01-14 07:03:00,62.0,60.0,-100.00,South,175,4.0,10.0,95,-99.99,,,-99.99,,2013-01-14 12:03:00,
2013-01-14 07:12:00,62.0,60.0,-100.00,South,185,4.0,11.0,95,-99.99,,,-99.99,,2013-01-14 12:12:00,
2013-01-14 07:23:00,62.0,60.0,-100.00,SSE,165,6.0,10.0,95,-99.99,,,-99.99,,2013-01-14 12:23:00,
2013-01-14 07:33:00,62.0,60.0,-100.00,SSE,150,5.0,10.0,95,-99.99,,,-99.99,,2013-01-14 12:33:00,
2013-01-14 07:43:00,62.0,60.0,-100.00,South,175,4.0,11.0,95,-99.99,,,-99.99,,2013-01-14 12:43:00,
2013-01-14 07:53:00,62.0,60.0,-100.00,South,175,7.0,14.0,95,-99.99,,,-99.99,,2013-01-14 12:53:00,
2013-01-14 08:03:00,62.0,60.0,-100.00,South,170,5.0,11.0,95,-99.99,,,-99.99,,2013-01-14 13:03:00,
2013-01-14 08:13:00,61.0,60.0,-100.00,SSE,160,5.0,13.0,95,-99.99,,,-99.99,,2013-01-14 13:13:00,
2013-01-14 08:23:00,61.0,60.0,-100.00,SSE,160,6.0,11.0,95,-99.99,,,-99.99,,2013-01-14 13:23:00,
2013-01-14 08:33:00,61.0,60.0,-100.00,SE,140,4.0,9.0,95,-99.99,,,-99.99,,2013-01-14 13:33:00,
2013-01-14 08:43:00,61.0,60.0,-100.00,South,175,2.0,11.0,95,-99.99,,,-99.99,,2013-01-14 13:43:00,
2013-01-14 08:53:00,61.0,60.0,-100.00,SW,215,4.0,13.0,95,-99.99,,,-99.99,,2013-01-14 13:53:00,
2013-01-14 09:03:00,61.0,60.0,-100.00,South,185,7.0,13.0,95,-99.99,,,-99.99,,2013-01-14 14:03:00,
2013-01-14 09:13:00,61.0,60.0,-100.00,SSE,160,6.0,12.0,95,-99.99,,,-99.99,,2013-01-14 14:13:00,
2013-01-14 09:23:00,61.0,60.0,-100.00,SSE,165,7.0,14.0,95,-99.99,,,-99.99,,2013-01-14 14:23:00,
2013-01-14 09:33:00,62.0,60.0,-100.00,SE,145,6.0,13.0,95,-99.99,,,-99.99,,2013-01-14 14:33:00,
2013-01-14 09:43:00,62.0,60.0,-100.00,South,175,5.0,13.0,95,-99.99,,,-99.99,,2013-01-14 14:43:00,
2013-01-14 09:53:00,62.0,61.0,-100.00,SSW,200,7.0,14.0,95,-99.99,,,-99.99,,2013-01-14 14:53:00,
2013-01-14 10:03:00,62.0,61.0,-100.00,South,185,4.0,14.0,95,-99.99,,,-99.99,,2013-01-14 15:03:00,
2013-01-14 10:12:00,62.0,61.0,-100.00,SSW,205,5.0,9.0,95,-99.99,,,-99.99,,2013-01-14 15:12:00,
2013-01-14 10:23:00,62.0,61.0,-100.00,SW,215,6.0,9.0,95,-99.99,,,-99.99,,2013-01-14 15:23:00,
2013-01-14 10:33:00,62.0,61.0,-100.00,SSW,210,6.0,12.0,95,-99.99,,,-99.99,,2013-01-14 15:33:00,
2013-01-14 10:43:00,62.0,61.0,-100.00,SSW,200,8.0,11.0,95,-99.99,,,-99.99,,2013-01-14 15:43:00,
2013-01-14 10:53:00,62.0,61.0,-100.00,SW,215,6.0,11.0,95,-99.99,,,-99.99,,2013-01-14 15:53:00,
2013-01-14 11:03:00,63.0,61.0,-100.00,SW,220,6.0,11.0,95,-99.99,,,-99.99,,2013-01-14 16:03:00,
2013-01-14 11:13:00,63.0,61.0,-100.00,SW,215,8.0,11.0,95,-99.99,,,-99.99,,2013-01-14 16:13:00,
2013-01-14 11:23:00,63.0,62.0,-100.00,SSW,210,7.0,11.0,95,-99.99,,,-99.99,,2013-01-14 16:23:00,
2013-01-14 11:33:00,63.0,62.0,-100.00,SSW,210,8.0,13.0,95,-99.99,,,-99.99,,2013-01-14 16:33:00,
2013-01-14 11:43:00,64.0,62.0,-100.00,SSW,210,6.0,13.0,95,-99.99,,,-99.99,,2013-01-14 16:43:00,
2013-01-14 11:53:00,64.0,63.0,-100.00,SSW,210,7.0,13.0,95,-99.99,,,-99.99,,2013-01-14 16:53:00,
2013-01-14 12:03:00,64.0,63.0,-100.00,SSW,210,6.0,11.0,95,-99.99,,,-99.99,,2013-01-14 17:03:00,
2013-01-14 12:12:00,64.0,63.0,-100.00,SSW,200,6.0,12.0,95,-99.99,,,-99.99,,2013-01-14 17:12:00,
2013-01-14 12:23:00,64.0,63.0,-100.00,SSW,205,6.0,10.0,95,-99.99,,,-99.99,,2013-01-14 17:23:00,
2013-01-14 12:33:00,64.0,63.0,-100.00,SSW,210,8.0,11.0,95,-99.99,,,-99.99,,2013-01-14 17:33:00,
2013-01-14 12:43:00,64.0,63.0,-100.00,SSW,200,6.0,11.0,95,-99.99,,,-99.99,,2013-01-14 17:43:00,
2013-01-14 12:53:00,64.0,63.0,-100.00,SW,215,4.0,10.0,95,-99.99,,,-99.99,,2013-01-14 17:53:00,
2013-01-14 13:03:00,64.0,63.0,-100.00,SSW,200,6.0,11.0,95,-99.99,,,-99.99,,2013-01-14 18:03:00,
2013-01-14 13:13:00,64.0,63.0,-100.00,SSW,210,6.0,11.0,95,-99.99,,,-99.99,,2013-01-14 18:13:00,
2013-01-14 13:23:00,64.0,63.0,-100.00,SW,225,6.0,10.0,95,-99.99,,,-99.99,,2013-01-14 18:23:00,
2013-01-14 13:33:00,64.0,63.0,-100.00,SW,215,4.0,10.0,95,-99.99,,,-99.99,,2013-01-14 18:33:00,
2013-01-14 13:43:00,64.0,63.0,-100.00,SSW,205,5.0,9.0,95,-99.99,,,-99.99,,2013-01-14 18:43:00,
2013-01-14 13:52:00,64.0,63.0,-100.00,SSW,195,4.0,10.0,95,-99.99,,,-99.99,,2013-01-14 18:52:00,
2013-01-14 14:03:00,64.0,63.0,-100.00,SSW,205,5.0,9.0,95,-99.99,,,-99.99,,2013-01-14 19:03:00,
2013-01-14 14:13:00,64.0,63.0,-100.00,South,170,4.0,9.0,95,-99.99,,,-99.99,,2013-01-14 19:13:00,
2013-01-14 14:22:00,65.0,63.0,-100.00,South,185,4.0,9.0,95,-99.99,,,-99.99,,2013-01-14 19:22:00,
2013-01-14 14:33:00,65.0,63.0,-100.00,SSW,205,4.0,8.0,95,-99.99,,,-99.99,,2013-01-14 19:33:00,
2013-01-14 14:43:00,65.0,63.0,-100.00,SW,215,4.0,8.0,95,-99.99,,,-99.99,,2013-01-14 19:43:00,
2013-01-14 14:53:00,65.0,64.0,-100.00,SSW,195,5.0,8.0,95,-99.99,,,-99.99,,2013-01-14 19:53:00,
2013-01-14 15:03:00,66.0,64.0,-100.00,SSW,195,6.0,11.0,95,-99.99,,,-99.99,,2013-01-14 20:03:00,
2013-01-14 15:13:00,66.0,64.0,-100.00,SSW,205,6.0,10.0,95,-99.99,,,-99.99,,2013-01-14 20:13:00,
2013-01-14 15:23:00,66.0,65.0,-100.00,SSW,200,5.0,9.0,95,-99.99,,,-99.99,,2013-01-14 20:23:00,
2013-01-14 15:33:00,66.0,65.0,-100.00,SW,215,5.0,10.0,95,-99.99,,,-99.99,,2013-01-14 20:33:00,
2013-01-14 15:43:00,66.0,65.0,-100.00,SSW,200,4.0,9.0,95,-99.99,,,-99.99,,2013-01-14 20:43:00,
2013-01-14 15:53:00,66.0,65.0,-100.00,SSW,200,4.0,9.0,95,-99.99,,,-99.99,,2013-01-14 20:53:00,
2013-01-14 16:03:00,66.0,65.0,-100.00,South,185,6.0,11.0,95,-99.99,,,-99.99,,2013-01-14 21:03:00,
2013-01-14 16:13:00,67.0,65.0,-100.00,SW,215,6.0,11.0,95,-99.99,,,-99.99,,2013-01-14 21:13:00,
2013-01-14 16:23:00,67.0,65.0,-100.00,SSW,210,6.0,11.0,95,-99.99,,,-99.99,,2013-01-14 21:23:00,
2013-01-14 16:33:00,67.0,65.0,-100.00,SW,215,6.0,8.0,95,-99.99,,,-99.99,,2013-01-14 21:33:00,
2013-01-14 16:43:00,67.0,65.0,-100.00,SW,215,5.0,9.0,95,-99.99,,,-99.99,,2013-01-14 21:43:00,
2013-01-14 16:50:00,67.0,65.0,-100.00,SW,215,2.0,7.0,92,-99.99,,,-99.99,,2013-01-14 21:50:00,
2013-01-14 16:53:00,67.0,65.0,-100.00,South,190,5.0,10.0,93,-99.99,,,-99.99,,2013-01-14 21:53:00,
2013-01-14 17:03:00,67.0,65.0,-100.00,SSW,200,4.0,6.0,93,-99.99,,,-99.99,,2013-01-14 22:03:00,
2013-01-14 17:12:00,67.0,65.0,-100.00,SSW,200,6.0,7.0,93,-99.99,,,-99.99,,2013-01-14 22:12:00,
2013-01-14 17:23:00,67.0,65.0,-100.00,SW,215,2.0,7.0,92,-99.99,,,-99.99,,2013-01-14 22:23:00,
2013-01-14 17:33:00,67.0,65.0,-100.00,SW,215,2.0,7.0,92,-99.99,,,-99.99,,2013-01-14 22:33:00,
2013-01-14 17:43:00,67.0,65.0,-100.00,SW,215,2.0,7.0,92,-99.99,,,-99.99,,2013-01-14 22:43:00,
2013-01-14 21:10:00,-999.0,-99.9,-100.00,SSW,210,8.0,13.0,-999,-99.99,,,-99.99,,2013-01-15 02:10:00,
2013-01-14 22:03:00,-999.0,-99.9,-100.00,SSW,210,8.0,13.0,-999,-99.99,,,-99.99,,2013-01-15 03:03:00,
2013-01-14 22:22:00,65.0,63.0,-100.00,SSW,210,8.0,11.0,91,-99.99,,,-99.99,,2013-01-15 03:22:00,
2013-01-14 22:33:00,66.0,62.0,-100.00,SW,220,7.0,13.0,88,-99.99,,,-99.99,,2013-01-15 03:33:00,
2013-01-14 22:42:00,65.0,62.0,-100.00,SW,220,7.0,11.0,88,-99.99,,,-99.99,,2013-01-15 03:42:00,
2013-01-14 22:52:00,65.0,62.0,-100.00,SW,220,6.0,13.0,88,-99.99,,,-99.99,,2013-01-15 03:52:00,
2013-01-14 23:03:00,65.0,61.0,-100.00,SSW,205,7.0,13.0,87,-99.99,,,-99.99,,2013-01-15 04:03:00,
2013-01-14 23:12:00,65.0,61.0,-100.00,SSW,205,8.0,14.0,86,-99.99,,,-99.99,,2013-01-15 04:12:00,
2013-01-14 23:22:00,65.0,61.0,-100.00,SW,215,9.0,11.0,86,-99.99,,,-99.99,,2013-01-15 04:22:00,
2013-01-14 23:33:00,65.0,61.0,-100.00,SW,215,6.0,12.0,86,-99.99,,,-99.99,,2013-01-15 04:33:00,
2013-01-14 23:42:00,65.0,61.0,-100.00,SW,215,6.0,10.0,86,-99.99,,,-99.99,,2013-01-15 04:42:00,
2013-01-14 23:52:00,65.0,61.0,-100.00,SW,215,5.0,10.0,85,-99.99,,,-99.99,,2013-01-15 04:52:00,